Location: Champignolles
(47.0543°N, 4.5663°E)
Time: 23:20:01
(UTC+00:00)

N. Korean satellite - Pass Details

Date: 07 December 2021
Orbit: 447 x 491 km, 97.3° (Epoch: 21 January)

Event Time Altitude Azimuth Distance (km) Brightness Sun altitude
Rises 17:08:14 0° 209° (SSW) 2,517 11.0 -12.3°
Reaches altitude 10° 17:11:06 10° 235° (SW) 1,634 10.6 -12.8°
Maximum altitude 17:13:02 14° 269° (W) 1,394 10.0 -13.1°
Drops below altitude 10° 17:14:58 10° 303° (WNW) 1,627 9.8 -13.4°
Sets 17:17:48 0° 329° (NNW) 2,498 10.3 -13.9°
